Location: Cudham
(51.3000°N, 0.0667°E)
Time: 22:09:53
(UTC+00:00)

Cosmos 909 Rocket - Pass Details

Date: 15 May 2026
Orbit: 989 x 2090 km, 65.9° (Epoch: 6 June)

Event Time Altitude Azimuth Distance (km) Brightness Sun altitude
Rises 20:12:18 0° 200° (SSW) 3,773 6.9 -4.4°
Reaches altitude 10° 20:14:57 10° 196° (SSW) 2,775 6.2 -4.7°
Maximum altitude 20:21:03 55° 120° (ESE) 1,180 4.2 -5.5°
Drops below altitude 10° 20:27:22 10° 45° (NE) 2,872 6.4 -6.2°
Sets 20:30:09 0° 41° (NE) 3,917 7.2 -6.5°
